Time,TemperatureF,DewpointF,PressureIn,WindDirection,WindDirectionDegrees,WindSpeedMPH,WindSpeedGustMPH,Humidity,HourlyPrecipIn,Conditions,Clouds,dailyrainin,SoftwareType,DateUTC
2013-07-03 00:04:00,63.3,57.0,29.65,NW,315,1.7,-999.0,80,-99.99,,,0.00,Acu-Link.com,2013-07-03 07:04:00,
2013-07-03 00:20:00,63.0,57.1,29.64,WNW,292,1.7,-999.0,81,-99.99,,,0.00,Acu-Link.com,2013-07-03 07:20:00,
2013-07-03 00:35:00,63.1,57.2,29.65,SE,135,2.2,-999.0,81,-99.99,,,0.00,Acu-Link.com,2013-07-03 07:35:00,
2013-07-03 01:06:00,64.9,57.1,29.63,NE,45,2.7,-999.0,76,-99.99,,,0.00,Acu-Link.com,2013-07-03 08:06:00,
2013-07-03 01:21:00,66.0,57.1,29.63,NNE,22,1.1,-999.0,73,-99.99,,,0.00,Acu-Link.com,2013-07-03 08:21:00,
2013-07-03 01:36:00,66.2,56.9,29.63,ENE,67,1.1,-999.0,72,-99.99,,,0.00,Acu-Link.com,2013-07-03 08:36:00,
2013-07-03 02:52:00,67.6,57.5,29.63,SW,225,0.0,-999.0,70,-99.99,,,0.00,Acu-Link.com,2013-07-03 09:52:00,
2013-07-03 03:07:00,67.3,57.2,29.62,West,270,1.1,-999.0,70,-99.99,,,0.00,Acu-Link.com,2013-07-03 10:07:00,
2013-07-03 03:22:00,67.1,57.4,29.63,North,0,0.0,-999.0,71,-99.99,,,0.00,Acu-Link.com,2013-07-03 10:22:00,
2013-07-03 03:38:00,67.1,57.4,29.63,NW,315,0.0,-999.0,71,-99.99,,,0.00,Acu-Link.com,2013-07-03 10:38:00,
2013-07-03 03:53:00,66.6,57.3,29.63,NNW,337,0.0,-999.0,72,-99.99,,,0.00,Acu-Link.com,2013-07-03 10:53:00,
2013-07-03 04:23:00,65.3,57.2,29.61,SSW,202,0.0,-999.0,75,-99.99,,,0.00,Acu-Link.com,2013-07-03 11:23:00,
2013-07-03 04:39:00,65.1,57.3,29.61,WNW,292,0.0,-999.0,76,-99.99,,,0.00,Acu-Link.com,2013-07-03 11:39:00,
2013-07-03 04:54:00,65.3,57.2,29.61,WNW,292,0.0,-999.0,75,-99.99,,,0.00,Acu-Link.com,2013-07-03 11:54:00,
2013-07-03 05:09:00,64.6,56.9,29.61,NNW,337,1.7,-999.0,76,-99.99,,,0.00,Acu-Link.com,2013-07-03 12:09:00,
2013-07-03 05:24:00,64.0,57.0,29.61,WNW,292,0.0,-999.0,78,-99.99,,,0.00,Acu-Link.com,2013-07-03 12:24:00,
2013-07-03 05:39:00,63.5,57.2,29.61,West,270,0.0,-999.0,80,-99.99,,,0.00,Acu-Link.com,2013-07-03 12:39:00,
2013-07-03 05:55:00,63.7,57.8,29.62,WSW,247,0.0,-999.0,81,-99.99,,,0.00,Acu-Link.com,2013-07-03 12:55:00,
2013-07-03 06:25:00,63.5,57.2,29.62,WNW,292,0.0,-999.0,80,-99.99,,,0.00,Acu-Link.com,2013-07-03 13:25:00,
2013-07-03 06:40:00,64.8,57.8,29.62,South,180,0.0,-999.0,78,-99.99,,,0.00,Acu-Link.com,2013-07-03 13:40:00,
2013-07-03 06:56:00,66.2,58.8,29.62,NW,315,0.0,-999.0,77,-99.99,,,0.00,Acu-Link.com,2013-07-03 13:56:00,
2013-07-03 07:26:00,71.4,59.9,29.62,West,270,0.0,-999.0,67,-99.99,,,0.00,Acu-Link.com,2013-07-03 14:26:00,
2013-07-03 07:57:00,76.5,61.6,29.63,SSE,157,1.1,-999.0,60,-99.99,,,0.00,Acu-Link.com,2013-07-03 14:57:00,
2013-07-03 08:12:00,76.5,61.1,29.62,WSW,247,0.0,-999.0,59,-99.99,,,0.00,Acu-Link.com,2013-07-03 15:12:00,
2013-07-03 08:43:00,77.9,61.4,29.63,South,180,0.0,-999.0,57,-99.99,,,0.00,Acu-Link.com,2013-07-03 15:43:00,
2013-07-03 09:13:00,80.4,62.2,29.63,SW,225,1.1,-999.0,54,-99.99,,,0.00,Acu-Link.com,2013-07-03 16:13:00,
2013-07-03 09:29:00,82.0,63.7,29.63,South,180,0.0,-999.0,54,-99.99,,,0.00,Acu-Link.com,2013-07-03 16:29:00,
2013-07-03 09:44:00,83.3,62.7,29.62,NE,45,2.2,-999.0,50,-99.99,,,0.00,Acu-Link.com,2013-07-03 16:44:00,
2013-07-03 09:59:00,85.6,64.2,29.62,SSW,202,0.0,-999.0,49,-99.99,,,0.00,Acu-Link.com,2013-07-03 16:59:00,
2013-07-03 10:15:00,86.7,65.2,29.61,SSE,157,2.7,-999.0,49,-99.99,,,0.00,Acu-Link.com,2013-07-03 17:15:00,
2013-07-03 10:30:00,88.5,64.4,29.61,WSW,247,2.2,-999.0,45,-99.99,,,0.00,Acu-Link.com,2013-07-03 17:30:00,
2013-07-03 10:45:00,89.4,63.9,29.61,South,180,4.7,-999.0,43,-99.99,,,0.00,Acu-Link.com,2013-07-03 17:45:00,
2013-07-03 11:00:00,89.8,64.9,29.61,SSE,157,1.1,-999.0,44,-99.99,,,0.00,Acu-Link.com,2013-07-03 18:00:00,
2013-07-03 11:16:00,91.0,64.7,29.60,WSW,247,2.2,-999.0,42,-99.99,,,0.00,Acu-Link.com,2013-07-03 18:16:00,
2013-07-03 11:31:00,91.4,64.3,29.61,West,270,2.7,-999.0,41,-99.99,,,0.00,Acu-Link.com,2013-07-03 18:31:00,
2013-07-03 11:46:00,92.3,65.8,29.60,SW,225,3.2,-999.0,42,-99.99,,,0.00,Acu-Link.com,2013-07-03 18:46:00,
2013-07-03 12:01:00,93.4,66.1,29.60,NW,315,3.2,-999.0,41,-99.99,,,0.00,Acu-Link.com,2013-07-03 19:01:00,
2013-07-03 12:17:00,95.4,66.5,29.59,SE,135,3.2,-999.0,39,-99.99,,,0.00,Acu-Link.com,2013-07-03 19:17:00,
2013-07-03 12:32:00,97.3,65.8,29.59,South,180,1.7,-999.0,36,-99.99,,,0.00,Acu-Link.com,2013-07-03 19:32:00,
2013-07-03 12:47:00,95.7,65.2,29.58,ESE,112,5.3,-999.0,37,-99.99,,,0.00,Acu-Link.com,2013-07-03 19:47:00,
2013-07-03 13:03:00,96.8,66.9,29.58,SSE,157,3.7,-999.0,38,-99.99,,,0.00,Acu-Link.com,2013-07-03 20:03:00,
2013-07-03 13:18:00,98.1,66.5,29.57,South,180,5.3,-999.0,36,-99.99,,,0.00,Acu-Link.com,2013-07-03 20:18:00,
2013-07-03 13:33:00,100.2,69.2,29.57,WNW,292,1.7,-999.0,37,-99.99,,,0.00,Acu-Link.com,2013-07-03 20:33:00,
2013-07-03 13:48:00,99.7,67.9,29.57,East,90,7.3,-999.0,36,-99.99,,,0.00,Acu-Link.com,2013-07-03 20:48:00,
2013-07-03 14:03:00,100.0,67.4,29.56,SSE,157,3.7,-999.0,35,-99.99,,,0.00,Acu-Link.com,2013-07-03 21:03:00,
2013-07-03 14:18:00,100.0,66.5,29.55,West,270,4.7,-999.0,34,-99.99,,,0.00,Acu-Link.com,2013-07-03 21:18:00,
2013-07-03 15:04:00,100.4,65.1,29.53,South,180,5.3,-999.0,32,-99.99,,,0.00,Acu-Link.com,2013-07-03 22:04:00,
2013-07-03 15:19:00,99.0,65.7,29.52,West,270,3.7,-999.0,34,-99.99,,,0.00,Acu-Link.com,2013-07-03 22:19:00,
2013-07-03 15:35:00,98.8,66.3,29.52,East,90,3.7,-999.0,35,-99.99,,,0.00,Acu-Link.com,2013-07-03 22:35:00,
2013-07-03 15:50:00,99.1,66.6,29.51,NW,315,1.7,-999.0,35,-99.99,,,0.00,Acu-Link.com,2013-07-03 22:50:00,
2013-07-03 16:05:00,100.2,66.7,29.50,WSW,247,3.7,-999.0,34,-99.99,,,0.00,Acu-Link.com,2013-07-03 23:05:00,
2013-07-03 16:20:00,100.0,66.5,29.50,ESE,112,3.2,-999.0,34,-99.99,,,0.00,Acu-Link.com,2013-07-03 23:20:00,
2013-07-03 16:50:00,100.0,65.7,29.48,WNW,292,6.8,-999.0,33,-99.99,,,0.00,Acu-Link.com,2013-07-03 23:50:00,
2013-07-03 17:06:00,100.0,66.5,29.48,SW,225,4.2,-999.0,34,-99.99,,,0.00,Acu-Link.com,2013-07-04 00:06:00,
2013-07-03 17:21:00,97.7,64.5,29.48,West,270,2.7,-999.0,34,-99.99,,,0.00,Acu-Link.com,2013-07-04 00:21:00,
2013-07-03 17:36:00,97.0,64.7,29.48,SW,225,2.7,-999.0,35,-99.99,,,0.00,Acu-Link.com,2013-07-04 00:36:00,
2013-07-03 17:52:00,97.7,64.5,29.49,SE,135,4.2,-999.0,34,-99.99,,,0.00,Acu-Link.com,2013-07-04 00:52:00,
2013-07-03 18:22:00,95.7,62.8,29.49,ESE,112,4.2,-999.0,34,-99.99,,,0.00,Acu-Link.com,2013-07-04 01:22:00,
2013-07-03 18:38:00,94.5,62.6,29.48,SE,135,4.7,-999.0,35,-99.99,,,0.00,Acu-Link.com,2013-07-04 01:38:00,
2013-07-03 18:53:00,93.9,62.0,29.49,East,90,7.3,-999.0,35,-99.99,,,0.00,Acu-Link.com,2013-07-04 01:53:00,
2013-07-03 19:08:00,90.5,67.5,29.48,West,270,1.7,-999.0,47,-99.99,,,0.00,Acu-Link.com,2013-07-04 02:08:00,
2013-07-03 19:39:00,87.6,64.2,29.49,WSW,247,2.7,-999.0,46,-99.99,,,0.00,Acu-Link.com,2013-07-04 02:39:00,
2013-07-03 19:54:00,84.6,60.9,29.49,SSW,202,2.7,-999.0,45,-99.99,,,0.01,Acu-Link.com,2013-07-04 02:54:00,
2013-07-03 20:09:00,84.0,61.0,29.49,SSE,157,2.7,-999.0,46,-99.99,,,0.01,Acu-Link.com,2013-07-04 03:09:00,
2013-07-03 20:25:00,78.4,59.8,29.49,NNW,337,1.7,-999.0,53,-99.99,,,0.01,Acu-Link.com,2013-07-04 03:25:00,
2013-07-03 20:40:00,77.2,59.8,29.49,SW,225,1.7,-999.0,55,-99.99,,,0.01,Acu-Link.com,2013-07-04 03:40:00,
2013-07-03 20:55:00,77.2,59.2,29.49,West,270,2.2,-999.0,54,-99.99,,,0.01,Acu-Link.com,2013-07-04 03:55:00,
2013-07-03 21:10:00,76.6,59.7,29.49,SSW,202,1.7,-999.0,56,-99.99,,,0.01,Acu-Link.com,2013-07-04 04:10:00,
2013-07-03 21:26:00,75.7,59.4,29.48,NNE,22,1.7,-999.0,57,-99.99,,,0.01,Acu-Link.com,2013-07-04 04:26:00,
2013-07-03 21:41:00,75.2,59.4,29.49,SSE,157,0.0,-999.0,58,-99.99,,,0.01,Acu-Link.com,2013-07-04 04:41:00,
2013-07-03 21:56:00,74.3,59.0,29.50,West,270,0.0,-999.0,59,-99.99,,,0.01,Acu-Link.com,2013-07-04 04:56:00,
2013-07-03 22:12:00,73.9,59.1,29.50,WSW,247,0.0,-999.0,60,-99.99,,,0.01,Acu-Link.com,2013-07-04 05:12:00,
2013-07-03 22:27:00,73.8,59.0,29.50,WNW,292,0.0,-999.0,60,-99.99,,,0.01,Acu-Link.com,2013-07-04 05:27:00,
2013-07-03 22:43:00,73.6,59.3,29.50,ESE,112,0.0,-999.0,61,-99.99,,,0.01,Acu-Link.com,2013-07-04 05:43:00,
2013-07-03 22:58:00,73.4,59.1,29.50,West,270,1.7,-999.0,61,-99.99,,,0.01,Acu-Link.com,2013-07-04 05:58:00,
2013-07-03 23:13:00,73.2,59.4,29.50,NNE,22,1.1,-999.0,62,-99.99,,,0.01,Acu-Link.com,2013-07-04 06:13:00,
2013-07-03 23:28:00,73.0,59.2,29.50,NW,315,3.7,-999.0,62,-99.99,,,0.01,Acu-Link.com,2013-07-04 06:28:00,
2013-07-03 23:44:00,73.6,59.3,29.48,West,270,1.7,-999.0,61,-99.99,,,0.01,Acu-Link.com,2013-07-04 06:44:00,
2013-07-03 23:59:00,72.7,59.4,29.49,WNW,292,2.2,-999.0,63,-99.99,,,0.01,Acu-Link.com,2013-07-04 06:59:00,